Location: Unspecified
(0.0000°N, 0.0000°E)
Time: 07:56:33
(UTC+00:00)

Vanguard 2 - Pass Details

Date: 28 October 2021
Orbit: 554 x 2936 km, 32.9° (Epoch: 06 December)

Event Time Altitude Azimuth Distance (km) Brightness Sun altitude
Rises 00:17:40 0° 277° (W) 6,763 - -74.4°
Reaches altitude 10° 00:24:36 10° 292° (WNW) 5,577 - -73.4°
Maximum altitude 00:34:42 19° 331° (NNW) 4,351 - -71.8°
Drops below altitude 10° 00:42:57 10° 11° (N) 4,421 - -70.3°
Sets 00:47:33 0° 29° (NNE) 4,982 - -69.5°
